• Processing (Info)

  • MPEC 2023-P32 : 2023 PB

    The following Minor Planet Electronic Circular may be linked-to from your own Web pages, but must not otherwise be redistributed electronically.

    A form allowing access to any MPEC is at the bottom of this page.


    Read MPEC 2023-P31 Read MPEC 2023-P33


    M.P.E.C. 2023-P32                                Issued 2023 August 7, 19:52 UT
    
         The Minor Planet Electronic Circulars contain information on unusual
             minor planets, routine data on comets and natural satellites,
             and occasional editorial announcements.  They are published
        on behalf of Division F of the International Astronomical Union by the
              Minor Planet Center, Smithsonian Astrophysical Observatory,
                              Cambridge, MA 02138, U.S.A.
    			  
                 Prepared using the Tamkin Foundation Computer Network
    
                                  MPC@CFA.HARVARD.EDU
                URL https://www.minorplanetcenter.net/    ISSN 1523-6714
    
                                     2023 PB                                 
    
    
    Observations:
         K23P00B* C2023 08 04.47285819 07 05.074+76 30 20.87         19.45iXEP032F51
         K23P00B  C2023 08 04.48451519 07 07.927+76 29 51.54         19.63iXEP032F51
         K23P00B  C2023 08 04.49613719 07 10.834+76 29 22.49         18.88iXEP032F51
         K23P00B KC2023 08 04.86242 19 08 52.30 +76 14 38.4          19.2 GXEP032L51
         K23P00B KC2023 08 04.86542 19 08 52.96 +76 14 30.9          19.1 GXEP032L51
         K23P00B KC2023 08 04.86842 19 08 53.68 +76 14 23.8          19.3 GXEP032L51
         K23P00B KC2023 08 05.23255 19 10 28.33 +75 59 50.8          19.6 GVEP032U55
         K23P00B KC2023 08 05.24260 19 10 30.52 +75 59 26.7          19.2 GVEP032U55
         K23P00B KC2023 08 05.25246 19 10 32.46 +75 59 03.5          19.6 GVEP032U55
         K23P00B KC2023 08 05.84723119 12 56.14 +75 35 39.5          19.1 GVEP032104
         K23P00B KC2023 08 05.85052 19 12 57.17 +75 35 31.4          19.0 GXEP032G15
         K23P00B KC2023 08 05.85580119 12 57.97 +75 35 19.4          19.3 GVEP032104
         K23P00B KC2023 08 05.85724 19 12 58.39 +75 35 16.4          19.8 GXEP032G15
         K23P00B KC2023 08 05.86365 19 12 59.83 +75 35 01.5          19.4 GXEP032G15
         K23P00B KC2023 08 05.86437219 12 59.71 +75 34 59.5          19.2 GVEP032104
         K23P00B KC2023 08 05.87222819 13 01.39 +75 34 41.2          19.2 GVEP032104
         K23P00B KC2023 08 05.88206 19 13 04.68 +75 34 19.6          19.2 GVEP032Z45
         K23P00B KC2023 08 05.88634 19 13 04.31 +75 34 08.2          19.7 GXEP032K78
         K23P00B KC2023 08 05.88732 19 13 05.71 +75 34 07.6          19.2 GVEP032Z45
         K23P00B KC2023 08 05.89248 19 13 06.82 +75 33 55.9          19.1 GVEP032Z45
         K23P00B KC2023 08 05.89984 19 13 07.10 +75 33 36.8          19.7 GXEP032K78
         K23P00B KC2023 08 05.90466 19 13 09.21 +75 33 26.9          19.5 GVEP032Z45
         K23P00B KC2023 08 05.90680 19 13 09.56 +75 33 22.3          19.7 GVEP032Z45
         K23P00B KB2023 08 05.91247 19 13 10.514+75 33 08.39         19.8 VZEP032J57
         K23P00B KC2023 08 05.91539 19 13 10.23 +75 33 00.1          19.6 GXEP032K78
         K23P00B KC2023 08 05.91540 19 13 11.25 +75 33 02.9          19.8 GVEP032Z45
         K23P00B KB2023 08 05.91685 19 13 11.304+75 32 58.31         19.7 VZEP032J57
         K23P00B KB2023 08 05.92090 19 13 12.113+75 32 48.59         19.6 VZEP032J57
         K23P00B KC2023 08 05.92470 19 13 13.24 +75 32 40.7          19.8 GVEP032Z45
         K23P00B KC2023 08 05.93470 19 13 15.19 +75 32 17.4          19.5 GVEP032Z45
         K23P00B KC2023 08 05.94690 19 13 17.55 +75 31 49.0          19.3 GVEP032Z45
         K23P00B KC2023 08 06.88734119 16 42.69 +74 55 27.0          19.1 GXEP032958
         K23P00B KC2023 08 06.89305919 16 43.94 +74 55 14.1          20.1 GXEP032958
         K23P00B KC2023 08 06.89306719 16 43.798+74 55 11.71         19.4 GVEP032J95
         K23P00B KC2023 08 06.89550419 16 44.268+74 55 06.06         19.3 GVEP032J95
         K23P00B KC2023 08 06.89780919 16 44.681+74 55 00.95         19.3 GVEP032J95
         K23P00B KC2023 08 06.89879119 16 45.14 +74 55 02.0          19.1 GXEP032958
         K23P00B KC2023 08 06.90013619 16 45.074+74 54 55.51         19.1 GVEP032J95
         K23P00B KC2023 08 06.90273419 16 45.607+74 54 49.43         19.3 GVEP032J95
         K23P00B KC2023 08 06.91732419 16 48.050+74 54 16.06         19.4 GVEP032Z80
         K23P00B KB2023 08 06.92773 19 16 50.24 +74 53 57.1          19.5 VqEP032Z28
         K23P00B KC2023 08 06.92920519 16 50.640+74 53 49.88         19.5 GVEP032Z80
         K23P00B KB2023 08 06.92968 19 16 50.59 +74 53 52.6          19.5 VqEP032Z28
         K23P00B KB2023 08 06.93139 19 16 50.90 +74 53 48.6          19.8 VqEP032Z28
         K23P00B KC2023 08 06.94108019 16 52.452+74 53 21.44         19.5 GVEP032Z80
         K23P00B 6C2023 08 07.13194619 17 27.246+74 45 59.03         18.4 GVEP032Z84
         K23P00B 6C2023 08 07.13292219 17 27.485+74 45 56.80         18.7 GVEP032Z84
         K23P00B 6C2023 08 07.13390019 17 27.534+74 45 54.50         19.0 GVEP032Z84
    
    Observer details:
    104 San Marcello Pistoiese.  Observers P. Bacci, M. Maestripieri.  Measurers
        P. Bacci, L. Tesi, G. Fagioli.  0.60-m F4 Reflector + CCD.
    958 Observatoire de Dax.  Observers P. Dupouy, J. B. de Vanssay.  Measurer P.
        Dupouy.  0.43-m f/2.7 Reflector + CCD.
    F51 Pan-STARRS 1, Haleakala.  Observers J. Bulger, T. Lowe, P. Minguez, A.
        Schultz, I. Smith.  Measurers K. Chambers, T. de Boer, J. Bulger, J.
        Fairlamb, H. Gao, M. Huber, C.-C. Lin, T. Lowe, E. Magnier, P. Minguez, Y.
        Ramanjooloo, A. Schultz, I. Smith, R. Wainscoat, R. Weryk.  1.8-m Ritchey-
        Chretien + CCD.
    G15 Magroforte Observatory, Alessandria.  Observer A. De Pieri.  0.25-m f/5
        Newton 254 + CCD.
    J57 Centro Astronomico Alto Turia, Valencia.  Observer A. Fornas.  Measurers
        A. Fornas, G. Fornas, E. Arce, V. Mas.  0.40-m f/6.8 Reflector 0.4m + CMO.
    J95 Great Shefford.  Observer P. Birtwhistle.  0.41-m f/6.3 Schmidt-Cassegrain
        + CCD.
    K78 iota Scorpii Observatory, La Spezia.  Observers G. Scarfi, P. Boongerd, A.
        Maghded.  reflector + CCD.
    L51 MARGO, Nauchnyi.  Observer G. Borisov.  0.50-m f/1.9 reflector + CCD.
    U55 Golden Ears Observatory, Maple Ridge.  Observer B. Kumar.  0.25-m f/6.5
        Ritchey Chretien + CCD.
    Z28 Northern Skygems Observatory, Nerpio.  Observer L. Demetz.  0.50-m f/6.5
        reflector + CMO.
    Z45 Cosmos Observatory, Marbella.  Observer F. Cuevas.  0.35-m f/5.6 Ritchey-
        Chretien + CCD.
    Z80 Northolt Branch Observatory.  Observer G. Wells.  Measurers G. Wells, D.
        Bamberger.  0.25-m f/8.0 Ritchey-Chretien + CCD.
    Z84 Calar Alto-Schmidt.  Observers M. Micheli, R. Kresken.  Measurers R.
        Kresken, M. Micheli, F. Ocana, L. Conversi.  0.8-m f/3 Schmidt + CCD.
    
    Orbital elements:
    2023 PB                                                  Earth MOID = 0.1805 AU
    Epoch 2023 Sept. 13.0 TT = JDT 2460200.5                Veres                   
    M  38.53316              (2000.0)            P               Q                  
    n   0.43124194     Peri.  344.86135     -0.31450294     +0.83988171             
    a   1.7350902      Node   265.16718     -0.81828791     -0.47607446             
    e   0.5262499      Incl.   26.35574     -0.48113698     +0.26067568             
    P   2.29           H   18.97          G   0.15           U   9                  
    Residuals in seconds of arc
    230804 F51  0.0   0.0     230805 Z45  0.1+  0.1+    230806 958  0.2+  0.1-
    230804 F51  0.0   0.1-    230805 K78  0.2+  0.0     230806 J95  0.1+  0.2+
    230804 F51  0.1+  0.2+    230805 Z45  0.0   0.2+    230806 J95  0.2+  0.1+
    230804 L51  0.1+  0.3+    230805 Z45  0.3+  0.5+    230806 J95  0.1+  0.2+
    230804 L51  0.1-  0.1+    230805 K78  0.4+  0.2+    230806 958  0.8+  0.8+
    230804 L51  0.0   0.2+    230805 Z45  0.1+  0.4-    230806 J95  0.0   0.1+
    230805 U55  0.2+  0.3-    230805 Z45  0.2-  0.0     230806 J95  0.2+  0.1-
    230805 U55  0.0   0.6-    230805 J57  0.4+  0.1+    230806 Z80  0.5-  0.2-
    230805 U55  1.0-  0.4-    230805 K78  0.3+  0.0     230806 Z28  0.0   0.2+
    230805 104  0.2-  0.3+    230805 Z45  0.3-  0.6+    230806 Z80  1.2+  0.8+
    230805 G15  0.7+  0.2+    230805 J57  0.0   0.3+    230806 Z28  0.0   0.1+
    230805 104  0.0   0.0     230805 J57  0.0   0.0     230806 Z28  0.1+  0.0
    230805 G15  0.1+  0.7+    230805 Z45  0.2+  0.0     230806 Z80  0.2-  0.4-
    230805 G15  0.6+  0.7+    230805 Z45  0.0   0.1+    230807 Z84  0.0   0.2-
    230805 104  0.0   0.0     230805 Z45  0.2-  0.2+    230807 Z84  0.2+  0.1-
    230805 104  0.3+  0.0     230806 958  0.7-  0.1-    230807 Z84  0.3-  0.1-
    
    Ephemeris:
    2023 PB                  a,e,i = 1.74, 0.53, 26                  q = 0.8220
    Date    TT    R. A. (2000) Decl.     Delta      r    Elong.  Phase     V
    2023 07 08    08 59 00.3 +59 40 35   0.2031  0.8765    42.1   129.0    20.8
    ...
    2023 07 23    15 05 54.4 +85 02 22   0.2897  0.9620    71.1    92.3    19.5
    ...
    2023 07 31    18 38 14.9 +79 41 20   0.3482  1.0176    80.5    79.7    19.5
    ...
    2023 08 06    19 13 29.7 +75 29 32   0.3917  1.0622    86.1    72.3    19.6
    2023 08 07    19 17 04.6 +74 51 00   0.3988  1.0698    86.9    71.2    19.6
    2023 08 08    19 20 17.9 +74 13 18   0.4058  1.0774    87.8    70.1    19.6
    ...
    2023 08 14    19 34 43.2 +70 40 56   0.4472  1.1241    92.4    64.2    19.8
    ...
    2023 08 22    19 47 47.8 +66 20 05   0.5001  1.1879    97.8    57.5    19.9
    ...
    2023 09 06    20 08 11.7 +58 31 17   0.5959  1.3090   106.5    47.6    20.2
    
    M. P. C. Staff               (C) Copyright 2023 MPC           M.P.E.C. 2023-P32
    


    Read MPEC 2023-P31 Read MPEC 2023-P33


    MPEC number:

    Enter an MPEC number in one of the following forms:

    • 1997-B01 (the full form)
    • J97B01 (the packed version of the full form)
    • B01 (the abbreviated form)